Friday Harbor, WA
on Saturday, January 26, 2013

Saturday
Previous Day Next Day
Daily Summary
 ActualAverageRecord
Temperature
Mean Temperature °F °F  
Max Temperature 44°F 44°F 55°F (2003)
Min Temperature 37°F 36°F 19°F (2009)
Degree Days
Heating Degree Days 24    
Moisture
Dew Point 38°F   
Average Humidity 90    
Maximum Humidity 100    
Minimum Humidity 80    
Precipitation
Precipitation 0.01 in in in ()
Wind
Wind Speed 6 mph   
Max Wind Speed 16 mph   
Max Gust Speed 24 mph   
Visibility 9 miles   
Events Rain   
Averages and records for this station are not official NWS values.
Key: T is trace of precipitation, MM is missing value
Source: NWS Daily Summary
Seasonal Weather Averages
Time(PST)TemperatureDew PointHumidity Pressure Visibility Wind DirectionWind SpeedGust SpeedPrecipitationEvents Conditions
12:11 AM 42.8°F 37.4°F 81% 29.89 in 10.0 miles SE 8.1 mph - N/A   Overcast
12:32 AM 42.8°F 37.4°F 81% 29.89 in 10.0 miles East 5.8 mph - N/A   Scattered Clouds
12:51 AM 42.8°F 37.4°F 81% 29.88 in 10.0 miles ENE 5.8 mph - N/A   Mostly Cloudy
12:53 AM 42.1°F 37.9°F 85% 29.88 in 10.0 miles ENE 4.6 mph - N/A   Mostly Cloudy
1:15 AM 41.0°F 37.4°F 87% 29.87 in 10.0 miles ENE 8.1 mph - N/A   Partly Cloudy
1:53 AM 42.1°F 37.9°F 85% 29.88 in 10.0 miles East 9.2 mph - N/A   Partly Cloudy
2:49 AM 42.8°F 37.4°F 81% 29.86 in 10.0 miles East 9.2 mph - N/A   Overcast
2:53 AM 43.0°F 37.9°F 82% 29.86 in 10.0 miles East 8.1 mph - N/A   Overcast
3:53 AM 44.1°F 39.0°F 82% 29.86 in 10.0 miles SE 12.7 mph 20.7 mph N/A   Overcast
4:53 AM 43.0°F 39.0°F 86% 29.85 in 10.0 miles SE 15.0 mph 23.0 mph N/A   Overcast
5:53 AM 43.0°F 37.0°F 80% 29.85 in 10.0 miles SE 13.8 mph 23.0 mph N/A   Overcast
6:53 AM 42.1°F 37.0°F 82% 29.86 in 10.0 miles SSE 16.1 mph 24.2 mph N/A   Overcast
7:34 AM 41.0°F 39.2°F 93% 29.86 in 8.0 miles SSE 13.8 mph - 0.00 in Rain Light Rain
7:53 AM 41.0°F 37.9°F 89% 29.87 in 10.0 miles SSE 9.2 mph 16.1 mph 0.00 in   Overcast
8:17 AM 41.0°F 37.4°F 87% 29.87 in 9.0 miles SE 8.1 mph - 0.00 in Rain Light Rain
8:25 AM 41.0°F 37.4°F 87% 29.87 in 9.0 miles Variable 4.6 mph - 0.00 in Rain Light Rain
8:50 AM 41.0°F 39.2°F 93% 29.88 in 8.0 miles Calm Calm - 0.00 in Rain Light Rain
8:53 AM 41.0°F 39.0°F 93% 29.88 in 9.0 miles Calm Calm - 0.00 in Rain Light Rain
9:32 AM 41.0°F 39.2°F 93% 29.89 in 5.0 miles Calm Calm - 0.00 in Rain Light Rain
9:53 AM 41.0°F 39.9°F 96% 29.89 in 7.0 miles Calm Calm - 0.00 in Rain Light Rain
10:53 AM 41.0°F 39.0°F 93% 29.91 in 10.0 miles SW 4.6 mph - 0.00 in   Overcast
11:53 AM 41.0°F 39.9°F 96% 29.91 in 10.0 miles Variable 3.5 mph - 0.00 in Rain Light Rain
12:53 PM 42.1°F 39.9°F 92% 29.91 in 10.0 miles SSW 3.5 mph - 0.00 in Rain Light Rain
1:53 PM 43.0°F 39.9°F 89% 29.91 in 10.0 miles SE 3.5 mph - 0.00 in   Overcast
2:53 PM 44.1°F 39.9°F 85% 29.91 in 10.0 miles Calm Calm - N/A   Overcast
3:53 PM 44.1°F 41.0°F 89% 29.92 in 10.0 miles South 3.5 mph - N/A   Overcast
4:53 PM 41.0°F 39.0°F 93% 29.93 in 10.0 miles Calm Calm - N/A   Mostly Cloudy
5:53 PM 39.9°F 39.0°F 97% 29.95 in 10.0 miles Calm Calm - 0.00 in   Overcast
6:53 PM 39.0°F 37.9°F 96% 29.96 in 10.0 miles Calm Calm - 0.01 in   Mostly Cloudy
7:53 PM 39.9°F 39.0°F 97% 29.98 in 10.0 miles West 3.5 mph - N/A   Overcast
8:53 PM 39.0°F 37.9°F 96% 29.99 in 5.0 miles Calm Calm - N/A   Overcast
9:53 PM 39.0°F 37.9°F 96% 30.00 in 10.0 miles Calm Calm - N/A   Overcast
10:53 PM 37.9°F 37.9°F 100% 30.02 in 9.0 miles Calm Calm - 0.00 in   Overcast
11:46 PM 39.2°F 39.2°F 100% 30.02 in 5.0 miles Calm Calm - 0.00 in Rain Light Rain
11:53 PM 39.0°F 37.9°F 96% 30.03 in 5.0 miles Calm Calm - 0.00 in Rain Light Rain
Moon Phase
Jan. 26 Jan. 26 Feb. 03 Feb. 10 Feb. 17
Sunrise:07:48 AM (PST) Moon Rise:05:06 PM (PST)1/26
Sunset:05:01 PM (PST) Moon Set:07:06 AM (PST)1/26

Copyright © 2014 The Weather Underground, Inc.